Starlink 30859

operational
NORAD ID: 58371 Int'l Des: 2023-177 Owner: SPXS Country: US Constellation: starlink
LEOCIRCULAR

Starlink 30859について

説明を読み込み中...

リアルタイム位置

3D地球を読み込み中...

次回通過

高度履歴

Altitude vs Time

uPlot chart will show altitude changes over time

軌道要素

1 58371U 23177W 26036.72789356 .00000773 00000-0 72276-4 0 9993
2 58371 43.0037 165.5941 0001743 268.9203 91.1439 15.02537793123419
Epoch: Feb 5, 2026 • Age: 15 hours

現在のステータス

高度 567.3 km
速度 7.58 km/s
衛星直下点 -32.91°S, 116.36°E
打ち上げ日 Nov 18, 2023
運用期間 2.2 years
タイプ internet

技術仕様

分類 Payload
質量 730.00 kg
乾燥質量 700.00 kg
総質量 730.00 kg
長さ 0.30 m
直径 4.10 m
スパン 29.00 m
形状 Box + pan
製造者 SPXS
バスタイプ Starlink V2M
フェーズステータス In Orbit
所有者/国 SPXS/US

大規模コンステレーション

Loading constellations...